Wind_Speed
14 14 12 11 10 8 7 7 6 6 7 10 12 16 18 20 22 26 28 31 34 36 39 41 42 43 45 46 49 51 53 54 55 57 60 62 62 61 61 62 63 64 65 65
19 18 15 14 11 9 8 6 7 10 12 13 17 18 22 24 27 29 31 33 36 38 40 42 44 47 48 49 51 53 55 57 60 62 64 66 67 65 64 63 64 66 66 66
17 13 11 10 9 9 10 11 12 13 15 18 19 14 21 29 31 34 35 37 40 42 45 46 48 50 50 52 55 59 61 62 64 67 69 71 72 72 69 68 68 68 69 70
14 12 13 13 14 14 13 14 15 16 18 21 23 23 21 29 32 35 37 42 42 45 48 50 52 55 55 57 59 61 64 66 68 70 72 75 76 75 72 72 71 71 72 72
14 14 14 14 13 13 14 15 17 19 22 23 25 29 25 31 35 37 43 46 49 50 52 55 58 60 62 64 65 67 70 72 73 75 77 79 78 78 76 75 75 75 75 77
14 14 13 13 14 15 15 18 18 19 21 22 27 33 30 36 39 44 46 49 51 52 54 58 62 65 68 70 72 74 75 76 77 78 80 81 79 78 77 77 78 78 79 81
16 16 16 16 17 18 18 22 24 26 28 29 32 35 35 38 42 46 50 52 54 58 59 62 65 67 68 70 74 77 79 80 80 82 82 80 80 79 80 81 82 83 85 88
15 14 16 17 18 20 22 25 28 31 35 38 39 39 38 40 46 51 54 57 60 64 67 66 65 68 71 73 74 75 78 80 81 81 81 81 79 81 83 86 89 91 94 97
12 15 13 14 16 19 22 27 33 34 37 38 38 40 46 46 50 54 58 60 65 66 68 70 69 72 73 76 76 77 79 79 79 79 81 83 83 85 88 92 95 98 101 103
12 12 14 13 14 19 23 31 36 38 41 46 44 41 49 50 55 58 63 67 69 70 72 73 75 76 77 78 79 80 80 78 79 80 83 84 86 90 93 97 102 105 108 111
13 13 15 18 22 25 27 34 39 41 45 49 50 46 49 54 57 61 66 70 69 73 76 76 76 77 78 79 81 81 80 78 79 82 85 87 91 95 99 104 108 112 115 115
17 19 19 23 29 31 34 38 42 46 49 49 54 52 54 56 59 63 68 71 74 77 78 78 80 80 78 79 80 79 78 80 82 86 88 91 96 100 105 110 114 117 118 113
20 23 29 31 34 35 35 39 44 48 47 52 56 59 56 59 66 66 70 74 79 81 84 84 83 80 79 79 78 78 80 83 86 88 93 97 102 106 112 116 119 118 114 109
24 28 29 33 38 37 38 42 46 48 52 59 56 64 55 64 67 69 74 77 82 84 86 86 83 81 80 78 78 79 82 85 88 93 98 102 108 113 118 120 119 113 107 101
33 34 35 34 39 41 42 42 46 53 56 63 62 62 64 66 67 67 72 78 82 83 87 85 83 80 78 78 80 82 84 87 92 98 103 108 114 118 120 117 110 105 98 92
34 39 42 40 45 46 41 47 52 58 64 65 61 64 66 64 64 68 73 79 81 83 85 85 81 79 79 80 81 83 86 91 97 102 108 114 119 120 116 109 103 96 89 82
38 42 46 46 47 49 45 51 59 61 63 65 66 65 63 66 76 80 78 78 82 83 83 81 77 79 79 80 82 85 90 96 102 107 114 119 119 115 108 100 92 84 76 70
38 40 43 46 49 52 50 56 60 64 65 64 66 61 64 76 81 77 78 80 82 83 79 78 78 79 80 82 84 89 95 100 107 113 117 118 114 106 98 87 78 72 68 64
39 44 48 51 52 52 49 61 59 57 59 65 65 62 67 79 76 76 79 81 82 80 79 78 79 80 82 84 89 94 98 105 112 116 115 112 105 94 82 72 66 64 64 59
42 45 48 49 54 55 58 60 56 59 64 61 63 65 75 75 74 76 79 80 80 80 80 79 80 82 84 88 93 98 104 110 114 115 111 103 91 79 68 61 60 62 60 53
45 47 50 54 59 62 60 58 61 63 65 61 64 69 73 73 74 77 79 80 79 78 79 79 82 84 88 93 97 103 109 112 114 110 103 90 76 66 56 54 57 59 54 46
48 51 53 59 63 62 56 60 62 64 60 61 69 72 73 74 76 78 80 78 78 78 78 80 81 86 91 96 101 107 111 112 108 101 89 75 64 54 50 53 54 56 52 42
50 51 54 57 58 55 60 58 63 62 58 67 67 73 71 74 77 78 78 78 77 77 79 81 83 88 94 100 105 109 110 107 101 89 75 64 53 49 52 53 50 48 48 41
55 54 58 61 59 64 59 59 65 65 58 64 67 71 70 75 77 78 77 76 76 77 79 81 85 91 96 101 107 108 106 102 90 76 63 53 47 51 55 53 46 42 40 39
57 58 62 67 66 67 57 63 69 65 59 61 66 69 72 75 76 77 76 75 75 77 79 83 88 93 99 103 107 104 100 90 75 64 54 49 49 54 51 50 42 37 35 35
61 60 61 66 64 62 60 71 67 60 61 62 66 69 73 76 76 76 74 74 75 76 79 85 90 95 99 105 106 98 90 75 65 57 51 49 51 50 45 44 48 44 37 32
Wind_Direction
109 109 105 104 99 95 74 51 36 11 353 343 341 331 323 320 316 314 314 312 314 314 314 313 311 309 308 307 306 305 305 305 305 305 305 307 308 308 307 306 305 304 303 301
80 76 79 79 78 74 68 43 17 357 346 337 324 320 316 314 314 314 316 316 314 315 315 312 309 309 309 307 305 304 303 303 303 304 305 307 309 308 307 305 304 303 301 300
88 83 74 59 44 32 18 5 347 338 330 327 317 327 319 313 317 317 316 316 315 314 312 309 308 308 307 305 305 305 304 303 304 305 306 307 307 307 307 306 305 303 301 300
60 48 38 27 16 6 358 347 339 333 330 331 326 336 330 316 317 314 312 311 309 308 306 307 306 305 304 306 307 306 304 303 303 304 305 307 307 306 305 305 304 302 300 299
41 33 25 17 9 1 350 347 345 341 335 334 329 325 331 317 315 313 313 312 310 308 309 309 308 306 308 309 310 310 309 309 308 308 308 307 305 305 304 303 303 302 301 300
30 24 15 7 4 357 351 351 342 336 328 326 327 322 329 322 320 317 315 314 314 313 312 312 310 311 311 311 310 310 311 312 310 309 307 305 305 304 303 303 303 302 302 300
26 20 17 13 3 356 350 344 336 332 329 330 331 333 328 327 322 316 317 317 315 312 314 312 311 311 311 309 308 308 309 311 310 308 307 305 306 304 304 304 303 303 303 302
17 17 10 3 357 355 348 341 338 331 327 328 331 339 336 333 325 319 320 318 318 319 316 314 312 310 310 309 309 309 309 309 309 309 308 307 305 304 305 305 306 305 303 302
8 357 359 353 351 346 346 341 336 334 333 330 331 336 337 331 322 322 318 318 321 320 315 315 312 312 311 310 311 311 311 311 311 310 310 309 307 307 307 306 305 304 303 302
346 349 344 342 340 334 333 330 327 326 324 328 329 327 336 327 323 320 318 322 322 321 319 319 317 314 313 313 313 313 314 314 312 311 310 309 308 307 307 306 305 304 304 304
332 330 324 327 323 324 323 323 322 322 321 323 322 326 332 322 320 318 321 321 321 320 321 320 317 316 316 315 315 315 315 314 314 312 311 309 309 308 307 306 305 305 306 306
322 324 319 320 316 318 320 323 324 320 321 323 318 327 324 324 319 320 321 321 320 320 321 319 318 319 318 316 315 315 316 316 315 313 311 310 309 308 307 306 306 307 306 307
326 328 322 320 319 323 325 326 325 319 320 322 316 323 328 320 320 322 320 320 318 320 320 321 320 319 317 316 316 318 318 316 314 313 312 311 310 308 308 308 308 307 308 306
319 322 320 321 322 323 328 327 319 318 317 315 323 317 320 319 320 321 319 317 316 316 318 320 321 319 317 317 319 319 317 316 315 314 312 311 310 310 311 310 309 309 308 307
311 312 309 315 318 317 328 326 320 318 318 317 320 315 316 318 318 319 317 315 315 316 319 321 321 319 318 319 320 319 317 316 315 313 313 313 312 313 311 311 311 309 308 307
304 307 308 313 314 317 323 321 319 321 321 319 315 317 318 320 322 324 320 316 315 317 320 320 320 319 320 320 319 318 318 316 315 315 315 314 315 313 313 313 312 311 309 308
307 307 308 315 316 313 321 322 321 320 324 318 317 319 319 324 329 327 319 318 319 320 321 321 320 319 320 320 319 319 318 317 317 317 317 316 315 315 316 315 314 313 313 311
313 312 308 310 314 311 325 320 320 320 325 323 320 316 321 329 328 321 320 320 321 322 321 320 321 321 320 321 320 320 319 319 319 319 319 317 316 318 318 317 318 318 317 314
308 312 309 310 309 311 320 319 319 321 327 324 318 313 316 323 322 321 321 322 323 322 321 321 321 321 321 322 321 321 321 321 321 321 319 319 320 321 321 322 324 324 322 320
313 314 315 312 308 314 321 316 317 321 331 330 325 319 322 323 321 321 322 323 322 322 322 322 322 322 323 322 322 323 323 325 324 322 321 322 323 324 326 328 331 330 331 328
309 310 316 311 312 320 315 314 320 329 329 331 323 325 327 323 323 324 323 323 322 322 322 323 323 323 324 324 324 325 327 327 325 323 324 326 326 328 330 333 335 338 339 336
312 314 316 311 315 316 315 316 327 330 326 319 322 328 326 325 325 323 323 323 322 323 323 323 324 325 325 325 327 329 329 328 325 327 329 329 329 331 334 336 337 343 345 343
319 320 317 312 316 309 308 314 325 331 324 316 320 326 326 326 324 323 323 323 323 324 324 325 326 326 327 328 330 331 331 328 329 332 332 333 334 336 337 339 340 344 349 349
317 315 315 308 313 309 312 320 327 328 326 318 323 326 326 325 325 323 322 323 324 325 325 326 326 327 329 331 332 332 332 330 334 336 338 340 340 341 340 341 341 343 351 355
315 314 312 314 310 307 311 320 326 327 324 324 324 325 325 326 325 323 323 324 325 326 326 327 328 330 332 333 334 335 333 335 339 341 343 344 343 345 345 344 349 349 352 356
311 311 314 316 309 305 308 318 325 327 327 323 323 324 325 325 324 323 324 325 325 326 327 328 330 333 334 335 336 337 336 339 343 346 347 346 345 348 352 355 353 359 0 2
Height
5800 5801 5802 5802 5803 5803 5803 5803 5802 5801 5799 5797 5795 5793 5790 5787 5784 5782 5778 5775 5772 5767 5762 5757 5751 5744 5738 5732 5726 5720 5713 5707 5700 5693 5686 5678 5669 5661 5652 5644 5637 5629 5622 5615
5804 5803 5804 5804 5803 5803 5803 5802 5801 5801 5799 5797 5795 5793 5788 5785 5782 5778 5775 5772 5767 5762 5755 5748 5742 5735 5730 5724 5717 5709 5702 5695 5688 5680 5672 5664 5656 5647 5638 5630 5622 5614 5606 5599
5806 5807 5806 5806 5805 5805 5804 5803 5802 5800 5798 5795 5791 5792 5787 5782 5778 5774 5770 5765 5759 5753 5747 5740 5734 5727 5721 5713 5706 5699 5691 5683 5674 5665 5656 5648 5639 5630 5620 5612 5604 5594 5587 5579
5809 5809 5808 5808 5807 5807 5805 5803 5801 5798 5795 5793 5789 5787 5785 5778 5773 5769 5763 5758 5752 5746 5739 5732 5724 5716 5708 5702 5694 5685 5675 5666 5656 5647 5639 5630 5621 5614 5604 5595 5588 5579 5569 5560
5812 5811 5810 5809 5808 5806 5804 5801 5799 5796 5792 5790 5787 5783 5782 5774 5769 5763 5757 5752 5745 5738 5732 5724 5715 5706 5698 5689 5680 5670 5659 5649 5640 5631 5621 5612 5603 5593 5584 5575 5568 5559 5549 5539
5813 5812 5811 5809 5807 5805 5803 5801 5798 5795 5791 5788 5784 5779 5778 5769 5763 5756 5749 5742 5735 5727 5720 5711 5701 5692 5683 5674 5664 5653 5643 5633 5623 5612 5602 5592 5583 5574 5565 5556 5546 5537 5527 5517
5814 5812 5810 5809 5807 5804 5801 5797 5794 5791 5786 5782 5779 5774 5768 5761 5754 5745 5738 5731 5723 5714 5707 5698 5688 5679 5670 5659 5648 5638 5627 5617 5606 5595 5585 5574 5564 5554 5544 5534 5524 5513 5502 5491
5813 5811 5809 5806 5804 5802 5798 5794 5791 5785 5781 5776 5771 5767 5761 5754 5745 5736 5728 5720 5713 5705 5694 5684 5675 5665 5655 5644 5633 5623 5612 5601 5589 5578 5567 5556 5544 5533 5523 5510 5498 5487 5476 5464
5811 5809 5808 5805 5802 5800 5796 5791 5786 5781 5776 5769 5765 5760 5757 5746 5737 5729 5719 5711 5703 5694 5682 5672 5661 5650 5639 5629 5618 5606 5594 5583 5570 5558 5547 5536 5524 5512 5500 5488 5475 5462 5448 5435
5810 5809 5805 5803 5801 5797 5793 5789 5783 5776 5769 5762 5757 5753 5748 5738 5729 5719 5709 5702 5692 5681 5669 5658 5647 5635 5622 5611 5598 5586 5574 5563 5551 5539 5528 5516 5503 5490 5478 5464 5448 5433 5419 5404
5807 5806 5804 5800 5797 5794 5791 5784 5777 5770 5764 5756 5746 5746 5739 5728 5718 5708 5699 5689 5678 5667 5655 5643 5629 5616 5605 5593 5581 5569 5557 5545 5533 5521 5509 5496 5482 5468 5453 5437 5421 5404 5389 5373
5805 5803 5801 5798 5792 5789 5785 5778 5772 5763 5758 5751 5741 5736 5729 5717 5706 5698 5687 5677 5664 5651 5639 5626 5613 5602 5589 5576 5563 5550 5539 5527 5515 5502 5489 5475 5460 5444 5427 5409 5392 5374 5356 5341
5802 5799 5793 5791 5787 5783 5779 5774 5767 5757 5751 5744 5733 5724 5719 5704 5696 5686 5675 5662 5649 5637 5623 5610 5597 5586 5573 5559 5546 5535 5522 5509 5496 5482 5468 5452 5435 5417 5399 5379 5361 5341 5322 5307
5798 5796 5791 5786 5780 5776 5774 5768 5758 5751 5743 5733 5728 5713 5711 5696 5685 5674 5662 5649 5636 5621 5608 5595 5583 5569 5556 5543 5531 5519 5505 5491 5477 5462 5445 5428 5408 5388 5368 5347 5325 5307 5289 5273
5791 5788 5783 5782 5774 5768 5767 5760 5751 5742 5734 5721 5716 5702 5695 5687 5675 5664 5651 5636 5622 5608 5595 5583 5569 5556 5542 5529 5516 5503 5488 5473 5457 5440 5422 5402 5381 5359 5336 5314 5295 5276 5260 5245
5787 5780 5773 5773 5767 5761 5760 5752 5740 5730 5722 5711 5700 5694 5683 5675 5663 5651 5637 5624 5610 5596 5582 5568 5554 5541 5528 5515 5502 5487 5472 5454 5435 5416 5396 5374 5352 5328 5305 5284 5265 5248 5233 5219
5781 5775 5768 5763 5758 5751 5754 5742 5732 5722 5713 5702 5691 5683 5672 5662 5650 5637 5623 5609 5596 5582 5569 5554 5540 5526 5514 5501 5486 5471 5453 5435 5415 5392 5370 5346 5321 5299 5278 5258 5239 5223 5209 5196
5773 5768 5761 5755 5749 5741 5742 5731 5722 5712 5703 5691 5682 5671 5661 5649 5636 5623 5608 5595 5580 5567 5553 5539 5526 5513 5500 5486 5470 5453 5434 5415 5394 5371 5345 5318 5295 5274 5254 5235 5217 5203 5189 5177
5766 5760 5751 5744 5736 5731 5734 5720 5711 5700 5697 5682 5672 5661 5649 5637 5622 5608 5594 5580 5566 5552 5539 5525 5512 5498 5485 5471 5454 5435 5416 5395 5370 5345 5318 5293 5269 5251 5233 5217 5202 5188 5173 5160
5756 5750 5745 5735 5724 5720 5719 5705 5696 5689 5682 5670 5658 5648 5637 5622 5610 5596 5581 5568 5553 5538 5525 5512 5497 5482 5468 5453 5435 5416 5395 5371 5344 5317 5292 5268 5248 5231 5217 5203 5190 5176 5160 5147
5746 5741 5734 5723 5715 5714 5701 5691 5684 5676 5667 5653 5646 5634 5622 5609 5595 5582 5568 5554 5541 5527 5513 5498 5481 5467 5453 5436 5418 5398 5374 5349 5320 5294 5271 5250 5231 5218 5205 5194 5181 5167 5153 5139
5737 5731 5723 5713 5704 5697 5691 5681 5672 5661 5649 5640 5630 5619 5607 5594 5581 5568 5554 5541 5527 5514 5500 5485 5470 5454 5437 5419 5401 5379 5354 5328 5300 5276 5254 5235 5220 5208 5198 5188 5175 5161 5148 5135
5726 5721 5712 5703 5698 5685 5677 5670 5660 5649 5639 5630 5618 5607 5595 5582 5569 5555 5542 5529 5515 5501 5488 5473 5459 5441 5421 5401 5380 5360 5335 5307 5284 5261 5241 5226 5212 5201 5190 5181 5170 5159 5146 5133
5716 5708 5701 5690 5690 5674 5666 5657 5646 5637 5627 5618 5607 5594 5581 5569 5556 5543 5529 5516 5503 5489 5476 5460 5445 5428 5409 5388 5364 5341 5316 5290 5267 5249 5233 5220 5208 5197 5183 5174 5165 5156 5146 5134
5706 5695 5686 5677 5673 5666 5657 5646 5635 5624 5615 5605 5593 5582 5570 5557 5544 5530 5517 5504 5490 5477 5463 5448 5432 5415 5394 5373 5350 5325 5300 5278 5260 5243 5229 5217 5205 5193 5180 5167 5162 5154 5144 5136
5691 5682 5673 5666 5659 5650 5645 5635 5624 5613 5604 5592 5581 5569 5556 5543 5531 5518 5506 5492 5479 5465 5452 5437 5419 5400 5381 5359 5335 5311 5287 5269 5255 5240 5227 5215 5203 5191 5181 5169 5154 5148 5142 5136